TimeEST,TemperatureF,Dew PointF,Humidity,Sea Level PressureIn,VisibilityMPH,Wind Direction,Wind SpeedMPH,Gust SpeedMPH,PrecipitationIn,Events,Conditions,WindDirDegrees,DateUTC
12:15 AM,28.4,23.0,80,30.25,10.0,NNE,3.5,-,N/A,,Clear,30,2012-11-10 05:15:00
12:35 AM,28.4,23.0,80,30.25,10.0,Calm,Calm,-,N/A,,Clear,0,2012-11-10 05:35:00
12:55 AM,28.4,23.0,80,30.25,10.0,Calm,Calm,-,N/A,,Clear,0,2012-11-10 05:55:00
1:15 AM,26.6,21.2,80,30.25,10.0,Calm,Calm,-,N/A,,Clear,0,2012-11-10 06:15:00
1:35 AM,28.4,21.2,74,30.26,10.0,NNE,3.5,-,N/A,,Clear,20,2012-11-10 06:35:00
1:55 AM,28.4,23.0,80,30.26,10.0,ENE,3.5,-,N/A,,Clear,70,2012-11-10 06:55:00
5:15 AM,26.6,21.2,80,30.30,10.0,Calm,Calm,-,N/A,,Clear,0,2012-11-10 10:15:00
5:35 AM,24.8,21.2,86,30.31,10.0,Calm,Calm,-,N/A,,Clear,0,2012-11-10 10:35:00
5:55 AM,24.8,21.2,86,30.32,10.0,Calm,Calm,-,N/A,,Scattered Clouds,0,2012-11-10 10:55:00
6:15 AM,26.6,21.2,80,30.32,10.0,Calm,Calm,-,N/A,,Mostly Cloudy,0,2012-11-10 11:15:00
7:35 AM,26.6,21.2,80,30.35,10.0,Calm,Calm,-,N/A,,Clear,0,2012-11-10 12:35:00
7:55 AM,28.4,23.0,80,30.35,10.0,Calm,Calm,-,N/A,,Clear,0,2012-11-10 12:55:00
8:15 AM,30.2,23.0,75,30.36,10.0,Calm,Calm,-,N/A,,Clear,0,2012-11-10 13:15:00
8:35 AM,32.0,23.0,69,30.36,10.0,Calm,Calm,-,N/A,,Clear,0,2012-11-10 13:35:00
8:55 AM,33.8,24.8,70,30.37,10.0,Calm,Calm,-,N/A,,Clear,0,2012-11-10 13:55:00
9:15 AM,35.6,26.6,70,30.36,10.0,Calm,Calm,-,N/A,,Clear,0,2012-11-10 14:15:00
9:35 AM,37.4,26.6,65,30.36,10.0,Calm,Calm,-,N/A,,Clear,0,2012-11-10 14:35:00
9:55 AM,39.2,28.4,65,30.36,10.0,Calm,Calm,-,N/A,,Clear,0,2012-11-10 14:55:00
10:35 AM,44.6,28.4,53,30.36,10.0,Calm,Calm,-,N/A,,Clear,0,2012-11-10 15:35:00
10:55 AM,46.4,26.6,46,30.36,10.0,West,3.5,-,N/A,,Clear,260,2012-11-10 15:55:00
11:15 AM,46.4,26.6,46,30.35,10.0,Calm,Calm,-,N/A,,Clear,0,2012-11-10 16:15:00
11:35 AM,50.0,26.6,40,30.34,10.0,Calm,Calm,-,N/A,,Clear,0,2012-11-10 16:35:00
11:55 AM,50.0,26.6,40,30.33,10.0,Calm,Calm,-,N/A,,Clear,0,2012-11-10 16:55:00
12:15 PM,51.8,26.6,38,30.33,10.0,SSW,4.6,-,N/A,,Clear,210,2012-11-10 17:15:00
12:35 PM,53.6,23.0,30,30.32,10.0,SW,5.8,-,N/A,,Clear,220,2012-11-10 17:35:00
12:55 PM,53.6,23.0,30,30.32,10.0,SSW,5.8,-,N/A,,Clear,210,2012-11-10 17:55:00
1:15 PM,53.6,23.0,30,30.31,10.0,SW,3.5,-,N/A,,Clear,220,2012-11-10 18:15:00
1:35 PM,55.4,23.0,29,30.30,10.0,SSW,3.5,-,N/A,,Clear,210,2012-11-10 18:35:00
1:55 PM,59.0,26.6,29,30.29,10.0,SSW,4.6,-,N/A,,Clear,210,2012-11-10 18:55:00
2:15 PM,59.0,23.0,25,30.29,10.0,SW,4.6,-,N/A,,Clear,230,2012-11-10 19:15:00
2:35 PM,59.0,24.8,27,30.29,10.0,Calm,Calm,-,N/A,,Clear,0,2012-11-10 19:35:00
2:55 PM,59.0,24.8,27,30.29,10.0,WSW,3.5,-,N/A,,Clear,240,2012-11-10 19:55:00
3:15 PM,60.8,26.6,27,30.30,10.0,Calm,Calm,-,N/A,,Clear,0,2012-11-10 20:15:00
3:35 PM,60.8,28.4,29,30.30,10.0,Calm,Calm,-,N/A,,Clear,0,2012-11-10 20:35:00
3:55 PM,60.8,26.6,27,30.30,10.0,Calm,Calm,-,N/A,,Clear,0,2012-11-10 20:55:00
4:15 PM,60.8,28.4,29,30.30,10.0,Calm,Calm,-,N/A,,Clear,0,2012-11-10 21:15:00
4:35 PM,60.8,26.6,27,30.30,10.0,Calm,Calm,-,N/A,,Clear,0,2012-11-10 21:35:00
4:55 PM,59.0,26.6,29,30.30,10.0,Calm,Calm,-,N/A,,Clear,0,2012-11-10 21:55:00
5:15 PM,55.4,26.6,33,30.31,10.0,Calm,Calm,-,N/A,,Clear,0,2012-11-10 22:15:00
5:35 PM,51.8,28.4,41,30.31,10.0,Calm,Calm,-,N/A,,Clear,0,2012-11-10 22:35:00
5:55 PM,51.8,28.4,41,30.31,10.0,Calm,Calm,-,N/A,,Clear,0,2012-11-10 22:55:00
6:15 PM,48.2,30.2,50,30.32,10.0,Calm,Calm,-,N/A,,Clear,0,2012-11-10 23:15:00
6:35 PM,46.4,30.2,53,30.32,10.0,Calm,Calm,-,N/A,,Clear,0,2012-11-10 23:35:00
6:55 PM,46.4,30.2,53,30.32,10.0,Calm,Calm,-,N/A,,Clear,0,2012-11-10 23:55:00
7:15 PM,42.8,30.2,61,30.33,10.0,NE,3.5,-,N/A,,Clear,50,2012-11-11 00:15:00
7:35 PM,42.8,30.2,61,30.33,10.0,Calm,Calm,-,N/A,,Clear,0,2012-11-11 00:35:00
7:55 PM,41.0,30.2,65,30.34,10.0,Calm,Calm,-,N/A,,Clear,0,2012-11-11 00:55:00
8:15 PM,42.8,30.2,61,30.34,10.0,Calm,Calm,-,N/A,,Clear,0,2012-11-11 01:15:00
8:35 PM,41.0,28.4,61,30.34,10.0,NNE,3.5,-,N/A,,Clear,30,2012-11-11 01:35:00
8:55 PM,41.0,30.2,65,30.35,10.0,Calm,Calm,-,N/A,,Clear,0,2012-11-11 01:55:00
9:15 PM,39.2,30.2,70,30.35,10.0,Calm,Calm,-,N/A,,Clear,0,2012-11-11 02:15:00
9:35 PM,37.4,30.2,75,30.36,10.0,Calm,Calm,-,N/A,,Clear,0,2012-11-11 02:35:00
10:35 PM,35.6,30.2,81,30.36,10.0,Calm,Calm,-,N/A,,Clear,0,2012-11-11 03:35:00
11:15 PM,33.8,28.4,81,30.36,10.0,Calm,Calm,-,N/A,,Clear,0,2012-11-11 04:15:00
11:35 PM,35.6,30.2,81,30.36,10.0,NNE,4.6,-,N/A,,Clear,30,2012-11-11 04:35:00
11:55 PM,33.8,30.2,87,30.36,10.0,Calm,Calm,-,N/A,,Clear,0,2012-11-11 04:55:00